Regional Weather Roundup
Issued by NWS Boston, MA

Current Version | Previous Version | Text Only | Print | Product List | Glossary Off
Versions: 1 2 3 4 5 6 7 8 9 10 11 12 13 14 15 16 17 18 19 20 21 22 23 24 25 26 27 28 29 30 31 32 33 34 35 36 37 38 39 40 41 42 43 44 45 46 47 48 49 50
000 ASUS41 KBOX 210510 RWRBOX REGIONAL WEATHER ROUNDUP NATIONAL WEATHER SERVICE BOSTON/NORTON MA 100 AM EDT TUE AUG 21 2018 NOTE: "FAIR" INDICATES FEW OR NO CLOUDS BELOW 12,000 FEET WITH NO SIGNIFICANT WEATHER AND/OR OBSTRUCTIONS TO VISIBILITY. MAZALL-210600- EASTERN MASSACHUSETTS CITY SKY/WX TMP DP RH WIND PRES REMARKS BOSTON MOCLDY 67 62 84 NE8 30.17S BEVERLY MOCLDY 60 59 96 N3 30.16F LAWRENCE FAIR 63 58 83 CALM 30.20S BEDFORD FAIR 57 56 96 CALM 30.17S BLUE HILL N/A 62 62 100 NE10 30.16F NORWOOD FAIR 60 58 92 CALM 30.16S MARSHFIELD FAIR 68 64 88 NE8 30.14F PLYMOUTH CLOUDY 67 64 90 NE7 30.15F TAUNTON MOCLDY 61 59 93 CALM 30.14F FOG NEW BEDFORD MOCLDY 63 63 100 CALM 30.13F $$ MAZALL-210600- CAPE COD AND THE ISLANDS CITY SKY/WX TMP DP RH WIND PRES REMARKS FALMOUTH CLOUDY 66 63 88 NE8 30.15F HYANNIS CLOUDY 67 63 87 NE9 30.12F CHATHAM CLOUDY 67 62 84 NE9 30.14F PROVINCETOWN CLOUDY 65 62 90 E7 30.15F NANTUCKET CLOUDY 66 65 96 NE13 30.12F MARTHAS VNYRD CLOUDY 68 65 90 NE9 30.13F $$ MAZALL-210600- CENTRAL AND WESTERN MASSACHUSETTS CITY SKY/WX TMP DP RH WIND PRES REMARKS WORCESTER FAIR 59 58 96 N5 30.19S FITCHBURG FAIR 57 56 96 N3 30.20S ORANGE FAIR 58 56 93 CALM 30.20F FOG SPRINGFIELD FAIR 59 58 95 CALM 30.17S WESTFIELD FAIR 61 60 97 CALM 30.17F NORTH ADAMS FAIR 63 58 83 E5 30.18F PITTSFIELD FAIR 60 57 89 CALM 30.18F $$ RIZALL-210600- RHODE ISLAND CITY SKY/WX TMP DP RH WIND PRES REMARKS PROVIDENCE FAIR 63 61 93 N7 30.16F NEWPORT FAIR 64 63 96 N7 30.14F BLOCK ISLAND FAIR 66 63 90 NE7 30.15S SMITHFIELD FAIR 60 59 96 N3 30.17F WESTERLY FAIR 64 63 96 N5 30.16F $$ CTZALL-210600- CONNECTICUT CITY SKY/WX TMP DP RH WIND PRES REMARKS BRADLEY INTL FAIR 62 59 90 NE3 30.17S HARTFORD FAIR 64 58 80 NE3 30.16S BRIDGEPORT CLOUDY 71 63 75 E9 30.15S DANBURY CLOUDY 65 64 97 CALM 30.17S GROTON FAIR 64 60 87 N8 30.15S NEW HAVEN CLOUDY 68 60 75 NE6 30.16S CHESTER FAIR 63 61 94 MISG 30.18S MERIDEN CLOUDY 65 62 90 CALM 30.17S WILLIMANTIC FAIR 60 59 96 CALM 30.18S OXFORD CLOUDY 66 59 78 CALM 30.18F $$ MEZ002-015-021-024-NHZ003-005-008-011-012-014-VTZ005-008-210600- NORTHERN NEW ENGLAND CITY SKY/WX TMP DP RH WIND PRES REMARKS PORTLAND ME FAIR 58 57 97 NW5 30.19S BANGOR ME FAIR 59 56 89 S3 30.18F CONCORD NH FAIR 57 55 93 CALM 30.20S MANCHESTER NH FAIR 63 59 87 N3 30.18R NASHUA NH FAIR 59 58 96 NW6 30.20S PORTSMOUTH NH CLOUDY 62 60 93 CALM 30.17 JAFFREY NH FAIR 56 55 97 CALM 30.22S KEENE NH FAIR N/A N/A N/A CALM 30.20S FOG BURLINGTON VT FAIR 65 56 72 CALM 30.13S MT. WASHINGTON PTCLDY 46 45 93 E10 N/A $$ NYZ052-076-210600- EASTERN NEW YORK CITY SKY/WX TMP DP RH WIND PRES REMARKS ALBANY FAIR 67 59 75 S5 30.15S NEW YORK CITY MOCLDY 71 63 75 SE7 30.15R $$ ANZALL-210600- MARINE OBSERVATIONS STATION/POSITION TIME TEMP WIND PRES VSBY WAVE AIR SEA DIR/SP/G HT/PER (UTC) (F) (DEG/KT/KT) (MB) (MI) (FT/S) BOSTON BUOY 0450 67 67 50/ 8/ 10 1020.6F 4/ 8 BUZZARDS BAY 0400 67 30/ 16/ 17 1021.0F NANTUCKET SOUND 0450 68 73 40/ 14/ 17 1020.0F 2/ 3 MASS BAY-STELLWA 0404 67 69 70/ 10/ 12 1020.0R 1 7/8 3/ 6 ISLE OF SHOALS 0400 65 80/ 5/ 5 1021.4F S OF BLOCK IS 0443 70 N/A 3/ 7 $$ ......................KEY......................... SKY/WX - SKY CONDITION/PRESENT WEATHER TMP - TEMPERATURE IN FAHRENHEIT DWPT - DEWPOINT IN FAHRENHEIT RH - RELATIVE HUMIDITY IN PERCENT WIND - DIRECTION AND SPEED IN MPH PRES - MEAN SEA LEVEL PRESSURE IN INCHES OF HG WCI - WIND CHILL INDEX VSB - VISIBILITY IN MILES HX - HEAT INDEX TC - TEMPERATURE IN CELSIUS VRB - VARIABLE WIND DIRECTION N/A - NOT AVAILABLE

USA.gov is the U.S. government's official web portal to all federal, state and local government web resources and services.